This is the latest recevied weather packets stored in our database for station/object KD4MBW. If no packets are shown the sender has not sent any weather packets the latest 10 day(s).
| Time | Temp. | Humidity | Pressure | Rain* | Wind** | Luminosity | Snow |
|---|---|---|---|---|---|---|---|
| 1778168267 | 26.67° C | 89% | 1015.5 hPa | 0 mm | - | 327 W/m² | - |
| 1778167963 | 26.67° C | 89% | 1015.2 hPa | 0 mm | - | 311 W/m² | - |
| 1778167660 | 26.67° C | 89% | 1015.1 hPa | 0 mm | - | 274 W/m² | - |
| 1778167356 | 26.67° C | 89% | 1015.4 hPa | 0 mm | - | 263 W/m² | - |
| 1778167052 | 26.67° C | 89% | 1015.2 hPa | 0 mm | - | 289 W/m² | - |
| 1778166749 | 26.67° C | 89% | 1015.2 hPa | 0 mm | - | 252 W/m² | - |
| 1778166446 | 26.67° C | 90% | 1015.2 hPa | 0 mm | - | 305 W/m² | - |
| 1778166143 | 26.11° C | 90% | 1015 hPa | 0 mm | - | 610 W/m² | - |
| 1778165838 | 26.11° C | 91% | 1015.2 hPa | 0 mm | - | 313 W/m² | - |
| 1778165535 | 26.11° C | 91% | 1015.1 hPa | 0 mm | - | 290 W/m² | - |
| 1778165232 | 26.67° C | 90% | 1015 hPa | 0 mm | - | 263 W/m² | - |
| 1778164930 | 26.67° C | 90% | 1014.9 hPa | 0 mm | - | 351 W/m² | - |
| 1778164627 | 26.67° C | 89% | 1015 hPa | 0 mm | - | 430 W/m² | - |
| 1778164324 | 26.67° C | 89% | 1014.8 hPa | 0 mm | - | 289 W/m² | - |
| 1778164019 | 26.67° C | 89% | 1014.7 hPa | 0 mm | - | 368 W/m² | - |
| 1778163716 | 26.67° C | 89% | 1014.9 hPa | 0 mm | - | 402 W/m² | - |
| 1778163412 | 26.67° C | 90% | 1014.8 hPa | 0 mm | - | 371 W/m² | - |
| 1778163109 | 26.11° C | 90% | 1014.7 hPa | 0 mm | - | 299 W/m² | - |
| 1778162806 | 26.11° C | 91% | 1014.4 hPa | 0 mm | - | 549 W/m² | - |
| 1778162504 | 26.11° C | 91% | 1014.9 hPa | 0 mm | - | 353 W/m² | - |
| 1778162201 | 26.11° C | 91% | 1014.7 hPa | 0 mm | - | 348 W/m² | - |
| 1778161898 | 26.11° C | 91% | 1014.9 hPa | 0 mm | - | 341 W/m² | - |
| 1778161594 | 25.56° C | 92% | 1014.6 hPa | 0 mm | - | 252 W/m² | - |
| 1778161290 | 25.56° C | 93% | 1015 hPa | 0 mm | - | 383 W/m² | - |
| 1778160986 | 25.56° C | 92% | 1014.7 hPa | 0 mm | - | 321 W/m² | - |
* Rain latest hour (hover to see other rain measurements)
** Current wind speed in m/s (hover to see current wind gust speed)